Home   Weather   Fairfield   Past weeks
Flag for USA

Past Weather in Fairfield, Alabama, USA — Yesterday and Last 2 Weeks

Now
43 °F

Fog.


Feels Like: 41 °F
Forecast: 58 / 41 °F
Wind: 3 mph from Southeast

Location: Huntsville International / Jones Field

Current Time: Dec 15, 2019 at 7:25:17 am

Latest Report: Dec 15, 2019 at 6:53 am


Visibility: 6 mi

Pressure: 30.07 "Hg

Humidity: 89%

Dew Point: 40 °F

Location of FairfieldLocation

Past Weather in Fairfield — Graph

°F

Fairfield Temperature Yesterday

Maximum temperature yesterday: 53 °F (at 1:53 pm)
Minimum temperature yesterday: 43 °F (at 7:53 am)
Average temperature yesterday: 47 °F

High & Low Weather Summary for the Past Weeks

 TemperatureHumidityPressure
High69 °F (Nov 30, 11:53 am)100% (Nov 30, 11:33 pm)30.58 "Hg (Nov 30, 11:33 pm)
Low28 °F (Dec 11, 5:53 am)30% (Dec 5, 2:53 pm)29.60 "Hg (Nov 30, 11:12 pm)
Average48 °F73%30.04 "Hg
* Reported Nov 30 5:53 am — Dec 15 5:53 am, Fairfield. Weather by CustomWeather, © 2019

Note: Actual official high and low records may vary slightly from our data, if they occured in-between our weather recording intervals... More about our weather records

Fairfield Weather History for the Previous 24 Hours

Scroll right to see more
 ConditionsComfort  
Time TempWeatherWind HumidityBarometerVisibility
5:53 am
Sun, Dec 15
42 °FOvercast.No wind92%30.06 "Hg8 mi
4:53 am43 °FPassing clouds.No wind89%30.04 "Hg8 mi
3:53 am45 °FClear.3 mph86%30.02 "Hg10 mi
2:53 am44 °FPassing clouds.No wind85%30.01 "Hg9 mi
1:53 am45 °FOvercast.No wind82%29.99 "Hg10 mi
12:53 am45 °FClear.No wind82%29.97 "Hg10 mi
12:08 am46 °FPassing clouds.3 mph79%29.96 "Hg10 mi
11:53 pm
Sat, Dec 14
46 °FPassing clouds.3 mph83%29.96 "Hg10 mi
10:53 pm47 °FOvercast.No wind86%29.95 "Hg10 mi
10:37 pm47 °FPassing clouds.No wind83%29.95 "Hg10 mi
10:00 pm48 °FMostly cloudy.3 mph83%29.94 "Hg10 mi
9:32 pm49 °FOvercast.5 mph80%29.93 "Hg10 mi
8:53 pm49 °FOvercast.No wind80%29.92 "Hg10 mi
7:53 pm49 °FOvercast.6 mph80%29.92 "Hg10 mi
6:53 pm49 °FPassing clouds.7 mph77%29.89 "Hg10 mi
5:53 pm50 °FOvercast.8 mph74%29.88 "Hg10 mi
4:53 pm50 °FOvercast.5 mph74%29.86 "Hg10 mi
3:53 pm52 °FPartly sunny.No wind64%29.84 "Hg10 mi
2:53 pm52 °FPartly sunny.6 mph61%29.83 "Hg10 mi
1:53 pm53 °FPassing clouds.9 mph56%29.81 "Hg10 mi
12:53 pm51 °FPassing clouds.6 mph63%29.82 "Hg10 mi
11:53 am49 °FScattered clouds.7 mph69%29.83 "Hg10 mi
10:53 am46 °FPartly sunny.9 mph73%29.83 "Hg10 mi
10:41 am45 °FPartly sunny.6 mph76%29.83 "Hg10 mi
10:16 am44 °FBroken clouds.5 mph76%29.81 "Hg10 mi
9:53 am44 °FMostly cloudy.9 mph76%29.85 "Hg10 mi
8:53 am44 °FOvercast.9 mph76%29.83 "Hg10 mi
7:53 am43 °FOvercast.6 mph79%29.81 "Hg10 mi
Weather by CustomWeather, © 2019

See weather overview

Advertising